Regional Weather Roundup
Issued by NWS Albany, NY

Current Version | Previous Version | Graphics & Text | Print | Product List | Glossary Off
Versions: 1 2 3 4 5 6 7 8 9 10 11 12 13 14 15 16 17 18 19 20 21 22 23 24 25 26 27 28 29 30 31 32 33 34 35 36 37 38 39 40 41 42 43 44 45 46 47 48 49 50

000
ASUS41 KALY 210110
RWRALY

NEW YORK STATE HOURLY WEATHER ROUNDUP
NATIONAL WEATHER SERVICE ALBANY NY
800 PM EST SAT DEC 20 2014

NOTE: "FAIR" INDICATES FEW OR NO CLOUDS BELOW 12,000 FEET WITH NO
SIGNIFICANT WEATHER AND/OR NO OBSTRUCTIONS TO VISIBILITY.

NYZ032-033-038>043-046>054-057>066-NYZ062>081-210200-
EAST


CITY           SKY/WX    TMP DP  RH WIND       PRES   REMARKS
ALBANY         CLOUDY    28  20  71 N3        30.31F
GLENS FALLS    CLOUDY    20  17  88 CALM      30.32R
POUGHKEEPSIE   CLOUDY    30  20  66 CALM      30.29F
NEWBURGH       CLOUDY    28  23  80 VRB3      30.29S
MONTGOMERY     CLOUDY    29  22  75 NE6       30.27S WCI  23
WHITE PLAINS   CLOUDY    30  20  66 N5        30.26S WCI  25
ISLIP          CLOUDY    33  23  66 NW3       30.26F
NEW YORK CITY  CLOUDY    32  22  66 NE7       30.28F WCI  26
CENTRAL PARK   CLOUDY    32  20  61 VRB7      30.30S WCI  26
$$

NYZ005>009-017-018-044>046-055-056-210200-
CENTRAL


CITY           SKY/WX    TMP DP  RH WIND       PRES   REMARKS
FULTON         CLOUDY    23  19  85 CALM      30.30R
SYRACUSE       PTCLDY    22  20  92 SE3       30.30S
ROME           CLOUDY    24  18  77 CALM      30.32S
ELMIRA         CLOUDY    29  22  75 CALM      30.26R
BINGHAMTON     CLOUDY    25  21  85 W3        30.21S
MONTICELLO     CLOUDY    25  19  80 W5        30.23S WCI  19
$$

NYZ026>034-041>043-210200-
NORTH


CITY           SKY/WX    TMP DP  RH WIND       PRES   REMARKS
WATERTOWN      CLEAR     19  12  74 NE3       30.31S
FORT DRUM      NOT AVBL
MASSENA        PTCLDY    11   9  92 CALM      30.34S
SARANAC LAKE   CLEAR     11  32 100 NE3       30.19S
PLATTSBURGH    MOCLDY    15  12  88 CALM      30.33R
$$

NYZ001>004-010>016-019>021-210200-
WEST


CITY           SKY/WX    TMP DP  RH WIND       PRES   REMARKS
NIAGARA FALLS  CLOUDY    28  22  78 CALM      30.27S
BUFFALO        CLOUDY    29  22  75 CALM      30.27S
DUNKIRK        CLOUDY    30  23  75 S6        30.28R WCI  24
JAMESTOWN      CLOUDY    25  19  80 SW3       30.22S
WELLSVILLE     CLOUDY    24  19  81 CALM      30.19F
ROCHESTER      CLOUDY    30  21  69 E5        30.28S WCI  25
PENN YAN       CLOUDY    28  21  75 CALM      30.26S
$$

             KEY
       WCI = WIND CHILL INDEX
       VSB = VISIBILITY
       HX  = HEAT INDEX
$$


USA.gov is the U.S. government's official web portal to all federal, state and local government web resources and services.